User: anonymous   Login
Location: Unspecified
(0.0000°N, 0.0000°E)
Time: 05:25:56
(UTC+00:00)
Language:

Landsat 7 - Orbit

View from above orbital plane
View from above orbital plane
View from above satellite
View from above satellite

Ground track
Ground track

The orbit data is extracted from the following two-line orbital elements,

1 25682U 99020A   16152.80385256 -.00000025  00000-0  45058-5 0  9990
2 25682  98.2135 223.4274 0001558  88.6006 271.5365 14.57105882911050
Epoch (UTC): 31 May 2016 19:17:32
Eccentricity: 0.0001558
inclination: 98.2135°
perigee height: 701 km
apogee height: 703 km
right ascension of ascending node: 223.4274°
argument of perigee: 88.6006°
revolutions per day: 14.57105882
mean anomaly at epoch: 271.5365°
orbit number at epoch: 91105

The dashed part of the orbit path shows where the satellite is in the earth's shadow,  

DLR